Weather History for MYNN - January, 2013

Change the Weather History Date:

Wednesday, January 2, 2013

  Actual Average Record
Temperature  
Mean Temperature 71 °F -  
Max Temperature 82 °F 77 °F 86 °F (2007)
Min Temperature 60 °F 62 °F 53 °F (2001)
Cooling Degree Days 6    
Growing Degree Days 21 (Base 50)    
Moisture  
Dew Point 64 °F    
Average Humidity 77    
Maximum Humidity 100    
Minimum Humidity 50    
Precipitation  
Precipitation 0.00 in 0.06 in - ()
Sea Level Pressure  
Sea Level Pressure 30.07 in    
Wind  
Wind Speed 1 mph ()    
Max Wind Speed 7 mph    
Max Gust Speed -    
Visibility 6.8 miles    
Events Fog    
Averages and records for this station are not official NWS values.
T = Trace of Precipitation, MM = Missing Value Source: Averaged Metar Reports

Daily Weather History Graph

Daily Weather History Graph

Search for Another Location

Airport or City:

Trip Planner

Search our weather history database for the weather conditions in past years. The results will help you decide how hot, cold, wet, or windy it might be!

Date:

Astronomy

Jan. 02, 2013 Rise Set
Actual Time 6:55 AM EST 5:32 PM EST
Civil Twilight 6:30 AM EST 5:57 PM EST
Nautical Twilight 6:02 AM EST 6:26 PM EST
Astronomical Twilight 5:34 AM EST 6:54 PM EST
Moon 10:27 PM EST (1/2) 10:08 AM EST (1/2)
Length of Visible Light 11h 27m
Length of Day
10h 37m
Waning Gibbous, 75% of the Moon is Illuminated
Jan 2
Waning Gibbous
Jan 4
Last Quarter
Jan 11
New
Jan 18
First Quarter
Jan 26
Full

Hourly Weather History & Observations

Time (EST) Temp. Heat Index Dew Point Humidity Pressure Visibility Wind Dir Wind Speed Gust Speed Precip Events Conditions
12:00 AM 68.0 °F - 62.6 °F 83% 30.08 in 6.2 mi Calm Calm - N/A   Scattered Clouds
1:00 AM 64 °F - 59 °F 78% 30.07 in 9 mi Calm Calm - -   Partly Cloudy
1:00 AM 64.4 °F - 59.0 °F 83% 30.06 in 6.2 mi Calm Calm - N/A   Partly Cloudy
3:00 AM 66.2 °F - 60.8 °F 83% 30.05 in - North - - N/A   Partly Cloudy
4:00 AM 62 °F - - % 30.05 in 9 mi Calm Calm - -   Scattered Clouds
4:00 AM 62.6 °F - 60.8 °F 94% 30.05 in 6.2 mi Calm Calm - N/A   Partly Cloudy
5:00 AM 62.6 °F - 59.0 °F 88% 30.05 in 6.2 mi Calm Calm - N/A   Partly Cloudy
6:00 AM 62.6 °F - 60.8 °F 94% 30.06 in 6.2 mi Calm Calm - N/A   Partly Cloudy
7:00 AM 62 °F - 60 °F 89% 30.08 in 8 mi Calm Calm - - Fog Patches of Fog
7:00 AM 62.6 °F - 59.0 °F 88% 30.08 in 6.2 mi Calm Calm - N/A   Partly Cloudy
8:00 AM 66.2 °F - 64.4 °F 94% 30.11 in 6.2 mi Calm Calm - N/A Fog Shallow Fog
9:00 AM 71.6 °F - 66.2 °F 83% 30.11 in 6.2 mi ESE 3.5 mph - N/A   Partly Cloudy
10:00 AM 78 °F - 65 °F 57% 30.12 in 8 mi East 4.6 mph - -   Scattered Clouds
10:00 AM 77.0 °F - 66.2 °F 69% 30.12 in 6.2 mi East 4.6 mph - N/A   Partly Cloudy
11:00 AM 78.8 °F - 64.4 °F 61% 30.11 in 6.2 mi ESE 4.6 mph - N/A   Partly Cloudy
12:00 PM 78.8 °F - 64.4 °F 61% 30.09 in 6.2 mi SSE 6.9 mph - N/A   Partly Cloudy
1:00 PM 82 °F - 66 °F 50%  in 8 mi SSE 4.6 mph - -   Scattered Clouds
1:00 PM 82.4 °F 84.6 °F 66.2 °F 58% 30.06 in 6.2 mi SSE 4.6 mph - N/A   Partly Cloudy
2:00 PM 78.8 °F - 64.4 °F 61% 30.04 in 6.2 mi South 4.6 mph - N/A   Partly Cloudy
3:00 PM 78.8 °F - 64.4 °F 61% 30.02 in 6.2 mi SSE 4.6 mph - N/A   Scattered Clouds
4:00 PM 80 °F - 65 °F 52% 30.04 in 8 mi SE 4.6 mph - -   Clear
4:00 PM 78.8 °F - 66.2 °F 65% 30.04 in - SE 4.6 mph - N/A   Clear
5:00 PM 75.2 °F - 66.2 °F 73% 30.05 in - SSE 4.6 mph - N/A   Clear
6:00 PM 73.4 °F - 66.2 °F 78% 30.06 in 6.2 mi East 3.5 mph - N/A   Partly Cloudy
7:00 PM 72 °F - 68 °F 84% 30.07 in 7 mi East 3.5 mph - -   Scattered Clouds
7:00 PM 71.6 °F - 68.0 °F 88% 30.07 in 6.2 mi East 3.5 mph - N/A   Partly Cloudy
8:00 PM 71.6 °F - 66.2 °F 83% 30.09 in 6.2 mi Calm Calm - N/A   Partly Cloudy
9:00 PM 69.8 °F - 64.4 °F 83% 30.10 in 6.2 mi Calm Calm - N/A   Partly Cloudy
10:00 PM 69 °F - 67 °F 92% 30.11 in 8 mi Calm Calm - -   Scattered Clouds
10:00 PM 68.0 °F - 68.0 °F 100% 30.11 in 6.2 mi Calm Calm - N/A   Partly Cloudy
11:00 PM 69.8 °F - 66.2 °F 88% 30.09 in 6.2 mi Calm Calm - N/A   Partly Cloudy